Location: ???????
(55.4362°N, 38.1183°E)
Time: 08:13:52
(UTC+00:00)

Nauka - Pass Details

Date: 02 October 2021
Orbit: 417 x 423 km, 51.6° (Epoch: 24 October)

Event Time Altitude Azimuth Distance (km) Brightness Sun altitude
Rises 15:55:56 0° 273° (W) 2,367 ? -8.7°
Reaches altitude 10° 15:58:15 10° 260° (W) 1,501 ? -9.0°
Maximum altitude 16:01:05 25° 203° (SSW) 887 ? -9.4°
Drops below altitude 10° 16:03:54 10° 146° (SE) 1,499 ? -9.8°
Enters shadow 16:04:28 - 141° (SE) 1,699 ? -9.9°
